Hourly Weather Bolshoy Kukmor

Today, 30 July, Friday

Time Temperature Precipitation Wind Pressure Humidity
00:00 +17°C° 0 mm 2 mps 744 mmHg 92%
01:00 +16°C° 0 mm 2 mps 744 mmHg 94%
02:00 +16°C° 0 mm 2 mps 743 mmHg 95%
03:00 +15°C° 0 mm 2 mps 743 mmHg 97%
04:00 +16°C° 0 mm 2 mps 743 mmHg 95%
05:00 +17°C° 0 mm 2 mps 743 mmHg 92%
06:00 +18°C° 0 mm 2 mps 743 mmHg 90%
07:00 +19°C° 0 mm 3 mps 743 mmHg 84%
08:00 +20°C° 0 mm 3 mps 743 mmHg 78%
09:00 +21°C° 0 mm 4 mps 743 mmHg 73%
10:00 +23°C° 0 mm 4 mps 743 mmHg 69%
11:00 +25°C° 0 mm 5 mps 744 mmHg 64%
12:00 +26°C° 0 mm 5 mps 744 mmHg 60%
13:00 +27°C° 0.1 mm 5 mps 744 mmHg 58%
14:00 +27°C° 0.1 mm 5 mps 744 mmHg 55%
15:00 +27°C° 0 mm 5 mps 744 mmHg 56%
16:00 +27°C° 0 mm 4 mps 744 mmHg 59%
17:00 +26°C° 0 mm 3 mps 744 mmHg 62%
18:00 +26°C° 0 mm 2 mps 744 mmHg 66%
19:00 +25°C° 0 mm 2 mps 744 mmHg 67%
20:00 +24°C° 0 mm 2 mps 744 mmHg 69%
21:00 +24°C° 0 mm 3 mps 744 mmHg 71%
22:00 +22°C° 0 mm 3 mps 744 mmHg 74%
23:00 +21°C° 0 mm 2 mps 744 mmHg 77%

Tomorrow, 31 July, Saturday

Time Temperature Precipitation Wind Pressure Humidity
00:00 +20°C° 0 mm 2 mps 744 mmHg 80%
01:00 +20°C° 0.5 mm 2 mps 744 mmHg 85%
02:00 +19°C° 0.5 mm 2 mps 744 mmHg 89%
03:00 +19°C° 0.5 mm 2 mps 744 mmHg 93%
04:00 +19°C° 0.4 mm 3 mps 744 mmHg 93%
05:00 +19°C° 0.4 mm 3 mps 743 mmHg 92%
06:00 +20°C° 0.4 mm 3 mps 743 mmHg 92%
07:00 +21°C° 0.1 mm 4 mps 743 mmHg 86%
08:00 +23°C° 0.1 mm 5 mps 742 mmHg 81%
09:00 +25°C° 0.1 mm 5 mps 742 mmHg 75%
10:00 +24°C° 0.3 mm 6 mps 742 mmHg 78%
11:00 +23°C° 0.3 mm 6 mps 742 mmHg 80%
12:00 +23°C° 0.3 mm 6 mps 742 mmHg 82%
13:00 +24°C° 0.1 mm 6 mps 743 mmHg 74%
14:00 +26°C° 0.1 mm 6 mps 743 mmHg 67%
15:00 +27°C° 0.1 mm 6 mps 743 mmHg 59%
16:00 +27°C° 0 mm 6 mps 743 mmHg 62%
17:00 +26°C° 0 mm 6 mps 743 mmHg 64%
18:00 +26°C° 0 mm 5 mps 744 mmHg 67%
19:00 +23°C° 0.1 mm 5 mps 744 mmHg 74%
20:00 +21°C° 0.1 mm 4 mps 744 mmHg 81%
21:00 +20°C° 0.1 mm 3 mps 745 mmHg 89%
22:00 +19°C° 0 mm 3 mps 745 mmHg 88%
23:00 +19°C° 0 mm 3 mps 745 mmHg 88%

Day after tomorrow, 1 August, Sunday

Time Temperature Precipitation Wind Pressure Humidity
00:00 +18°C° 0 mm 3 mps 746 mmHg 87%
01:00 +18°C° 0 mm 3 mps 746 mmHg 87%
02:00 +17°C° 0 mm 3 mps 746 mmHg 86%
03:00 +17°C° 0 mm 3 mps 746 mmHg 86%
04:00 +18°C° 0 mm 3 mps 747 mmHg 82%
05:00 +18°C° 0 mm 3 mps 747 mmHg 79%
06:00 +19°C° 0 mm 3 mps 748 mmHg 75%
07:00 +21°C° 0 mm 4 mps 748 mmHg 67%
08:00 +23°C° 0 mm 5 mps 748 mmHg 58%
09:00 +26°C° 0 mm 5 mps 749 mmHg 50%
10:00 +26°C° 0 mm 6 mps 749 mmHg 47%
11:00 +27°C° 0 mm 6 mps 749 mmHg 45%
12:00 +28°C° 0 mm 6 mps 749 mmHg 42%
13:00 +28°C° 0 mm 6 mps 749 mmHg 42%
14:00 +28°C° 0 mm 6 mps 749 mmHg 41%
15:00 +29°C° 0 mm 6 mps 749 mmHg 41%
16:00 +28°C° 0 mm 5 mps 749 mmHg 46%
17:00 +27°C° 0 mm 4 mps 749 mmHg 51%
18:00 +26°C° 0 mm 2 mps 749 mmHg 56%
19:00 +25°C° 0 mm 2 mps 749 mmHg 58%
20:00 +24°C° 0 mm 2 mps 750 mmHg 61%
21:00 +23°C° 0 mm 2 mps 750 mmHg 63%
22:00 +21°C° 0 mm 2 mps 750 mmHg 65%
23:00 +20°C° 0 mm 2 mps 750 mmHg 67%

2 August, Monday

Time Temperature Precipitation Wind Pressure Humidity
00:00 +20°C° 0 mm 2 mps 750 mmHg 69%
01:00 +19°C° 0 mm 2 mps 750 mmHg 70%
02:00 +19°C° 0 mm 2 mps 750 mmHg 71%
03:00 +19°C° 0 mm 2 mps 750 mmHg 72%
04:00 +20°C° 0 mm 2 mps 750 mmHg 70%
05:00 +20°C° 0 mm 3 mps 750 mmHg 68%
06:00 +21°C° 0 mm 3 mps 751 mmHg 67%
07:00 +23°C° 0 mm 4 mps 751 mmHg 60%
08:00 +26°C° 0 mm 4 mps 750 mmHg 54%
09:00 +28°C° 0 mm 5 mps 750 mmHg 48%
10:00 +29°C° 0 mm 5 mps 750 mmHg 45%
11:00 +30°C° 0 mm 6 mps 750 mmHg 41%
12:00 +32°C° 0 mm 6 mps 750 mmHg 38%
13:00 +33°C° 0 mm 6 mps 750 mmHg 38%
14:00 +33°C° 0 mm 6 mps 749 mmHg 37%
15:00 +34°C° 0 mm 6 mps 749 mmHg 37%
16:00 +32°C° 0 mm 4 mps 749 mmHg 45%
17:00 +30°C° 0 mm 2 mps 749 mmHg 54%
18:00 +26°C° 0 mm 0 mps 749 mmHg 62%
19:00 +26°C° 0 mm 1 mps 749 mmHg 65%
20:00 +25°C° 0 mm 1 mps 749 mmHg 68%
21:00 +23°C° 0 mm 1 mps 749 mmHg 71%
22:00 +23°C° 0 mm 1 mps 749 mmHg 70%
23:00 +23°C° 0 mm 2 mps 749 mmHg 68%

3 August, Tuesday

Time Temperature Precipitation Wind Pressure Humidity
00:00 +23°C° 0 mm 2 mps 749 mmHg 67%
01:00 +21°C° 0 mm 2 mps 749 mmHg 66%
02:00 +21°C° 0 mm 2 mps 749 mmHg 64%
03:00 +21°C° 0 mm 3 mps 749 mmHg 63%
04:00 +22°C° 0 mm 3 mps 748 mmHg 61%
05:00 +22°C° 0 mm 3 mps 748 mmHg 58%
06:00 +24°C° 0 mm 3 mps 748 mmHg 56%
07:00 +26°C° 0 mm 4 mps 748 mmHg 50%
08:00 +29°C° 0 mm 5 mps 748 mmHg 43%
09:00 +32°C° 0 mm 5 mps 748 mmHg 37%
10:00 +33°C° 0 mm 5 mps 747 mmHg 34%
11:00 +35°C° 0 mm 6 mps 747 mmHg 32%
12:00 +36°C° 0 mm 6 mps 747 mmHg 29%
13:00 +38°C° 0 mm 6 mps 747 mmHg 28%
14:00 +38°C° 0 mm 6 mps 746 mmHg 26%
15:00 +39°C° 0 mm 6 mps 746 mmHg 24%
16:00 +36°C° 0 mm 5 mps 746 mmHg 31%
17:00 +35°C° 0 mm 4 mps 746 mmHg 37%
18:00 +33°C° 0 mm 4 mps 746 mmHg 43%
19:00 +29°C° 0.3 mm 3 mps 746 mmHg 53%
20:00 +26°C° 0.3 mm 3 mps 747 mmHg 64%
21:00 +23°C° 0.3 mm 2 mps 748 mmHg 74%
22:00 +23°C° 0.8 mm 2 mps 747 mmHg 77%
23:00 +23°C° 0.8 mm 2 mps 747 mmHg 80%

4 August, Wednesday

Time Temperature Precipitation Wind Pressure Humidity
00:00 +22°C° 0.8 mm 1 mps 747 mmHg 82%
01:00 +20°C° 0 mm 2 mps 747 mmHg 83%
02:00 +20°C° 0 mm 2 mps 748 mmHg 84%
03:00 +19°C° 0 mm 2 mps 748 mmHg 85%
04:00 +21°C° 0 mm 1 mps 748 mmHg 83%
05:00 +22°C° 0 mm 1 mps 748 mmHg 81%
06:00 +23°C° 0 mm 1 mps 748 mmHg 80%
07:00 +24°C° 0 mm 1 mps 748 mmHg 72%
08:00 +26°C° 0 mm 1 mps 748 mmHg 64%
09:00 +28°C° 0 mm 2 mps 748 mmHg 56%
10:00 +28°C° 0 mm 2 mps 748 mmHg 52%
11:00 +29°C° 0 mm 2 mps 748 mmHg 49%
12:00 +30°C° 0 mm 2 mps 748 mmHg 45%
13:00 +30°C° 0 mm 2 mps 748 mmHg 46%
14:00 +30°C° 0 mm 1 mps 748 mmHg 46%
15:00 +30°C° 0 mm 1 mps 747 mmHg 47%
16:00 +29°C° 0 mm 1 mps 747 mmHg 51%
17:00 +28°C° 0 mm 2 mps 747 mmHg 55%
18:00 +27°C° 0 mm 2 mps 747 mmHg 59%
19:00 +26°C° 0.1 mm 2 mps 747 mmHg 63%
20:00 +24°C° 0.1 mm 2 mps 747 mmHg 67%
21:00 +22°C° 0.1 mm 1 mps 747 mmHg 71%
22:00 +22°C° 0.1 mm 1 mps 747 mmHg 75%
23:00 +21°C° 0.1 mm 1 mps 747 mmHg 80%
Show more

We Need Your Consent

Meteoprog and our Service Providers may store and access personal data such as cookies, device identifiers or other similar technologies on your device and process such data to personalise content and ads, as well as provide social media features and to analyse the traffic.

  • Store and/or access information on your device

    Cookies, device identifiers or other information can be stored or accessed on your device for the purposes indicated above.

  • Personalised ads and content, ad and content measurement, audience insights, and products development

    Ads and content can be personalised based on a profile. More data can be added to better personalise ads and content. Ad and content performance can be measured. Insights about the audience who saw the ads and content can be derived. Such data can be used to develop or improve user’s experience, systems and software.

By clicking ‘I Agree’ you will allow the use of indicated cookies, device identifiers, web beacons or other similar technologies. Your settings can be changed in the browser on your device.

For certain purposes, legitimate interests may be relied on, rather than consent. You can read more about this in our Privacy and Cookie Policy.